Hourly Data Report for September 09, 2010

IQALUIT CLIMATE
NUNAVUT

63°44'50.000" N
68°32'40.000" W
33.50 m
2402592
71321
XFB

Download Data

Hourly Data (September 2010)
Hourly Data Report for September 9, 2010
TIME
LST
Temp Definition
°C
Dew Point Definition
°C
Rel Hum Definition
%
Precip. Amount Definition
mm

Wind Dir Definition
10's deg

Wind Spd Definition
km/h
Visibility Definition
km
Stn Press Definition
kPa
Hmdx Definition


Wind Chill Definition


Weather Definition


00:00 5.0 3.7 91   32 9   101.14     LegendNANA
01:00 5.0 3.4 89   32 13   101.18     LegendNANA
02:00 4.5 3.3 92   32 9   101.19     LegendNANA
03:00 3.9 3.4 97   34 19   101.22     LegendNANA
04:00 3.8 2.2 89   32 13   101.25     LegendNANA
05:00 3.2 1.9 91   32 13   101.29     LegendNANA
06:00 3.5 2.6 94   31 9   101.31     LegendNANA
07:00 5.0 2.6 84   33 13   101.32     LegendNANA
08:00 5.3 2.6 83   32 19   101.32     LegendNANA
09:00 5.8 3.8 87   31 17   101.30     LegendNANA
10:00 8.6 4.2 74   31 19   101.27     LegendNANA
11:00 8.2 3.6 73   32 24   101.28     LegendNANA
12:00 9.0 3.5 68   32 28   101.28     LegendNANA
13:00 8.9 3.3 68   33 26   101.32     LegendNANA
14:00 10.1 2.8 60   33 28   101.34     LegendNANA
15:00 8.2 2.8 69   31 22   101.39     LegendNANA
16:00 7.9 2.2 67   31 28   101.42     LegendNANA
17:00 6.7 2.1 72   32 19   101.44     LegendNANA
18:00 6.3 1.6 72   32 24   101.49     LegendNANA
19:00 4.5 2.9 89   33 22   101.55     LegendNANA
20:00 4.8 3.1 89   33 11   101.57     LegendNANA
21:00 5.3 1.8 78   32 22   101.60     LegendNANA
22:00 5.0 1.5 78   31 26   101.64     LegendNANA
23:00 4.6 1.5 80   31 20   101.69     LegendNANA

Notes on Data Quality.

Legend

  • E = Estimated
  • M = Missing
  • NA = Not Available*
  • [empty] = Indicates an unobserved value
Date modified: